Time,TemperatureF,DewpointF,PressureIn,WindDirection,WindDirectionDegrees,WindSpeedMPH,WindSpeedGustMPH,Humidity,HourlyPrecipIn,Conditions,Clouds,dailyrainin,SoftwareType,DateUTC
2013-05-19 00:02:00,76.0,66.0,29.81,SE,144,3.0,-999.0,71,0.00,,,0.00,,2013-05-19 05:02:00,
2013-05-19 00:12:00,76.0,66.0,29.81,SE,144,3.0,-999.0,71,0.00,,,0.00,,2013-05-19 05:12:00,
2013-05-19 00:22:00,76.0,66.0,29.82,SSE,148,3.0,-999.0,72,0.00,,,0.00,,2013-05-19 05:22:00,
2013-05-19 00:32:00,75.0,66.0,29.82,SE,131,3.0,-999.0,74,0.00,,,0.00,,2013-05-19 05:32:00,
2013-05-19 00:42:00,75.0,67.0,29.82,SE,139,4.0,-999.0,77,0.00,,,0.00,,2013-05-19 05:42:00,
2013-05-19 00:52:00,75.0,67.0,29.82,SE,139,4.0,-999.0,77,0.00,,,0.00,,2013-05-19 05:52:00,
2013-05-19 01:02:00,74.0,67.0,29.83,SE,128,1.0,-999.0,78,0.00,,,0.00,,2013-05-19 06:02:00,
2013-05-19 01:12:00,74.0,67.0,29.83,SE,128,1.0,-999.0,78,0.00,,,0.00,,2013-05-19 06:12:00,
2013-05-19 01:21:00,73.0,67.0,29.82,SE,141,3.0,-999.0,81,0.00,,,0.00,,2013-05-19 06:21:00,
2013-05-19 01:32:00,73.0,68.0,29.82,SSE,153,3.0,-999.0,84,0.00,,,0.00,,2013-05-19 06:32:00,
2013-05-19 01:42:00,73.0,69.0,29.82,SE,140,8.0,-999.0,86,0.00,,,0.00,,2013-05-19 06:42:00,
2013-05-19 01:52:00,73.0,69.0,29.82,SE,140,8.0,-999.0,86,0.00,,,0.00,,2013-05-19 06:52:00,
2013-05-19 02:01:00,73.0,69.0,29.81,SE,146,7.0,-999.0,88,0.00,,,0.00,,2013-05-19 07:01:00,
2013-05-19 02:11:00,73.0,69.0,29.81,SE,146,7.0,-999.0,88,0.00,,,0.00,,2013-05-19 07:11:00,
2013-05-19 02:21:00,73.0,69.0,29.81,SE,146,7.0,-999.0,88,0.00,,,0.00,,2013-05-19 07:21:00,
2013-05-19 02:32:00,74.0,70.0,29.80,SSE,147,5.0,-999.0,87,0.00,,,0.00,,2013-05-19 07:32:00,
2013-05-19 02:42:00,74.0,70.0,29.80,SSE,147,5.0,-999.0,87,0.00,,,0.00,,2013-05-19 07:42:00,
2013-05-19 02:52:00,74.0,70.0,29.80,SE,146,5.0,-999.0,87,0.00,,,0.00,,2013-05-19 07:52:00,
2013-05-19 03:01:00,74.0,70.0,29.80,SE,135,7.0,-999.0,87,0.00,,,0.00,,2013-05-19 08:01:00,
2013-05-19 03:12:00,74.0,70.0,29.80,SE,135,7.0,-999.0,87,0.00,,,0.00,,2013-05-19 08:12:00,
2013-05-19 03:22:00,74.0,70.0,29.79,SSE,150,7.0,-999.0,87,0.00,,,0.00,,2013-05-19 08:22:00,
2013-05-19 03:32:00,74.0,70.0,29.78,SSE,157,7.0,-999.0,87,0.00,,,0.00,,2013-05-19 08:32:00,
2013-05-19 03:42:00,74.0,70.0,29.78,SSE,157,7.0,-999.0,87,0.00,,,0.00,,2013-05-19 08:42:00,
2013-05-19 03:52:00,74.0,70.0,29.79,SSE,160,2.0,-999.0,87,0.00,,,0.00,,2013-05-19 08:52:00,
2013-05-19 04:02:00,74.0,70.0,29.79,SE,144,3.0,-999.0,88,0.00,,,0.00,,2013-05-19 09:02:00,
2013-05-19 04:11:00,74.0,70.0,29.79,SE,144,3.0,-999.0,88,0.00,,,0.00,,2013-05-19 09:11:00,
2013-05-19 04:21:00,74.0,70.0,29.78,SE,138,7.0,-999.0,87,0.00,,,0.00,,2013-05-19 09:21:00,
2013-05-19 04:32:00,73.0,69.0,29.78,SE,144,4.0,-999.0,87,0.00,,,0.00,,2013-05-19 09:32:00,
2013-05-19 04:42:00,73.0,69.0,29.78,SE,144,4.0,-999.0,87,0.00,,,0.00,,2013-05-19 09:42:00,
2013-05-19 04:53:00,73.0,69.0,29.77,SE,126,7.0,-999.0,86,0.00,,,0.00,,2013-05-19 09:53:00,
2013-05-19 05:02:00,74.0,70.0,29.78,SE,142,9.0,-999.0,86,0.00,,,0.00,,2013-05-19 10:02:00,
2013-05-19 05:12:00,74.0,70.0,29.80,SSE,163,4.0,-999.0,86,0.00,,,0.00,,2013-05-19 10:12:00,
2013-05-19 05:22:00,74.0,70.0,29.80,SSE,163,4.0,-999.0,86,0.00,,,0.00,,2013-05-19 10:22:00,
2013-05-19 05:33:00,74.0,-99.9,-100.00,SSE,150,8.0,-999.0,-999,0.00,,,-99.99,,2013-05-19 10:33:00,
2013-05-19 05:42:00,74.0,-99.9,-100.00,SSE,150,8.0,-999.0,-999,0.00,,,-99.99,,2013-05-19 10:42:00,
2013-05-19 05:53:00,74.0,-99.9,-100.00,SSE,148,6.0,-999.0,-999,0.00,,,-99.99,,2013-05-19 10:53:00,
2013-05-19 06:02:00,74.0,70.0,29.78,SE,146,4.0,-999.0,86,0.00,,,0.00,,2013-05-19 11:02:00,
2013-05-19 06:11:00,74.0,70.0,29.78,SE,146,4.0,-999.0,86,0.00,,,0.00,,2013-05-19 11:11:00,
2013-05-19 06:21:00,74.0,70.0,29.78,SE,134,4.0,-999.0,86,0.00,,,0.00,,2013-05-19 11:21:00,
2013-05-19 06:32:00,74.0,-99.9,-100.00,SE,129,4.0,-999.0,-999,-99.99,,,-99.99,,2013-05-19 11:32:00,
2013-05-19 06:42:00,74.0,-99.9,-100.00,SE,129,4.0,-999.0,-999,-99.99,,,-99.99,,2013-05-19 11:42:00,
2013-05-19 06:52:00,74.0,70.0,29.78,SE,136,6.0,-999.0,86,0.00,,,0.00,,2013-05-19 11:52:00,
2013-05-19 07:01:00,74.0,-99.9,-100.00,SSE,159,3.0,-999.0,-999,0.00,,,-99.99,,2013-05-19 12:01:00,
2013-05-19 07:12:00,74.0,-99.9,-100.00,SSE,159,3.0,-999.0,-999,0.00,,,-99.99,,2013-05-19 12:12:00,
2013-05-19 07:21:00,74.0,70.0,29.79,SSE,150,3.0,-999.0,86,0.00,,,0.00,,2013-05-19 12:21:00,
2013-05-19 07:31:00,74.0,70.0,29.79,SE,136,1.0,-999.0,87,0.00,,,0.00,,2013-05-19 12:31:00,
2013-05-19 07:41:00,74.0,70.0,29.79,SE,136,1.0,-999.0,87,0.00,,,0.00,,2013-05-19 12:41:00,
2013-05-19 07:52:00,74.0,70.0,29.79,SE,138,3.0,-999.0,87,0.00,,,0.00,,2013-05-19 12:52:00,
2013-05-19 08:01:00,75.0,71.0,29.80,SSE,158,4.0,-999.0,86,0.00,,,0.00,,2013-05-19 13:01:00,
2013-05-19 08:11:00,75.0,71.0,29.80,SSE,158,4.0,-999.0,86,0.00,,,0.00,,2013-05-19 13:11:00,
2013-05-19 08:21:00,75.0,71.0,29.80,SSE,149,4.0,-999.0,86,0.00,,,0.00,,2013-05-19 13:21:00,
2013-05-19 08:32:00,76.0,71.0,29.81,South,174,7.0,-999.0,85,0.00,,,0.00,,2013-05-19 13:32:00,
2013-05-19 08:42:00,76.0,71.0,29.81,South,174,7.0,-999.0,85,0.00,,,0.00,,2013-05-19 13:42:00,
2013-05-19 08:52:00,76.0,71.0,29.81,SSE,149,8.0,-999.0,85,0.00,,,0.00,,2013-05-19 13:52:00,
2013-05-19 09:02:00,77.0,72.0,29.80,SE,138,7.0,-999.0,84,0.00,,,0.00,,2013-05-19 14:02:00,
2013-05-19 09:11:00,77.0,72.0,29.80,SE,138,7.0,-999.0,84,0.00,,,0.00,,2013-05-19 14:11:00,
2013-05-19 09:21:00,77.0,71.0,29.80,SSE,166,10.0,-999.0,82,0.00,,,0.00,,2013-05-19 14:21:00,
2013-05-19 09:32:00,78.0,72.0,29.80,SE,142,8.0,-999.0,81,0.00,,,0.00,,2013-05-19 14:32:00,
2013-05-19 09:41:00,78.0,72.0,29.80,SE,142,8.0,-999.0,81,0.00,,,0.00,,2013-05-19 14:41:00,
2013-05-19 09:52:00,78.0,71.0,29.80,SSE,157,9.0,-999.0,80,0.00,,,0.00,,2013-05-19 14:52:00,
2013-05-19 10:01:00,79.0,72.0,29.80,SE,142,9.0,-999.0,78,0.00,,,0.00,,2013-05-19 15:01:00,
2013-05-19 10:11:00,79.0,72.0,29.80,SE,142,9.0,-999.0,78,0.00,,,0.00,,2013-05-19 15:11:00,
2013-05-19 10:21:00,80.0,72.0,29.79,SSE,164,10.0,-999.0,76,0.00,,,0.00,,2013-05-19 15:21:00,
2013-05-19 10:33:00,82.0,73.0,29.79,SSE,151,12.0,-999.0,74,0.00,,,0.00,,2013-05-19 15:33:00,
2013-05-19 10:43:00,82.0,73.0,29.79,SSE,151,12.0,-999.0,74,0.00,,,0.00,,2013-05-19 15:43:00,
2013-05-19 10:53:00,82.0,72.0,29.80,SE,142,13.0,-999.0,73,0.00,,,0.00,,2013-05-19 15:53:00,
2013-05-19 11:03:00,82.0,72.0,29.79,SE,132,11.0,-999.0,72,0.00,,,0.00,,2013-05-19 16:03:00,
2013-05-19 11:12:00,82.0,72.0,29.79,SE,132,11.0,-999.0,72,0.00,,,0.00,,2013-05-19 16:12:00,
2013-05-19 11:23:00,83.0,72.0,29.79,SSE,156,11.0,-999.0,70,0.00,,,0.00,,2013-05-19 16:23:00,
2013-05-19 11:32:00,84.0,72.0,29.79,ESE,119,16.0,-999.0,68,0.00,,,0.00,,2013-05-19 16:32:00,
2013-05-19 11:42:00,84.0,72.0,29.79,ESE,119,16.0,-999.0,68,0.00,,,0.00,,2013-05-19 16:42:00,
2013-05-19 11:52:00,85.0,73.0,29.78,SSE,160,9.0,-999.0,68,0.00,,,0.00,,2013-05-19 16:52:00,
2013-05-19 12:02:00,85.0,71.0,29.78,SE,134,12.0,-999.0,64,0.00,,,0.00,,2013-05-19 17:02:00,
2013-05-19 12:12:00,85.0,71.0,29.78,SE,134,12.0,-999.0,64,0.00,,,0.00,,2013-05-19 17:12:00,
2013-05-19 12:22:00,86.0,73.0,29.78,SE,127,9.0,-999.0,66,0.00,,,0.00,,2013-05-19 17:22:00,
2013-05-19 12:32:00,86.0,72.0,29.78,SSE,158,15.0,-999.0,64,0.00,,,0.00,,2013-05-19 17:32:00,
2013-05-19 12:42:00,86.0,72.0,29.78,SSE,158,15.0,-999.0,64,0.00,,,0.00,,2013-05-19 17:42:00,
2013-05-19 12:52:00,87.0,72.0,29.78,SSE,161,12.0,-999.0,62,0.00,,,0.00,,2013-05-19 17:52:00,
2013-05-19 13:02:00,87.0,72.0,29.77,South,169,10.0,-999.0,62,0.00,,,0.00,,2013-05-19 18:02:00,
2013-05-19 13:12:00,87.0,72.0,29.77,South,169,10.0,-999.0,62,0.00,,,0.00,,2013-05-19 18:12:00,
2013-05-19 13:22:00,89.0,73.0,29.77,SSE,150,12.0,-999.0,59,0.00,,,0.00,,2013-05-19 18:22:00,
2013-05-19 13:32:00,88.0,73.0,29.76,SE,134,14.0,-999.0,61,0.00,,,0.00,,2013-05-19 18:32:00,
2013-05-19 13:42:00,88.0,73.0,29.76,SE,134,14.0,-999.0,61,0.00,,,0.00,,2013-05-19 18:42:00,
2013-05-19 13:53:00,89.0,72.0,29.75,SSE,153,9.0,-999.0,58,0.00,,,0.00,,2013-05-19 18:53:00,
2013-05-19 14:01:00,89.0,73.0,29.75,SE,141,16.0,-999.0,59,0.00,,,0.00,,2013-05-19 19:01:00,
2013-05-19 14:11:00,89.0,73.0,29.75,SE,141,16.0,-999.0,59,0.00,,,0.00,,2013-05-19 19:11:00,
2013-05-19 14:22:00,90.0,73.0,29.74,South,174,8.0,-999.0,57,0.00,,,0.00,,2013-05-19 19:22:00,
2013-05-19 14:32:00,90.0,73.0,29.74,SSE,164,10.0,-999.0,57,0.00,,,0.00,,2013-05-19 19:32:00,
2013-05-19 14:42:00,90.0,73.0,29.74,SSE,164,10.0,-999.0,57,0.00,,,0.00,,2013-05-19 19:42:00,
2013-05-19 14:52:00,90.0,72.0,29.73,SSE,165,12.0,-999.0,56,0.00,,,0.00,,2013-05-19 19:52:00,
2013-05-19 15:02:00,90.0,72.0,29.72,SSE,150,14.0,-999.0,55,0.00,,,0.00,,2013-05-19 20:02:00,
2013-05-19 15:11:00,90.0,72.0,29.72,SSE,150,14.0,-999.0,55,0.00,,,0.00,,2013-05-19 20:11:00,
2013-05-19 15:21:00,91.0,71.0,29.72,SSE,167,10.0,-999.0,53,0.00,,,0.00,,2013-05-19 20:21:00,
2013-05-19 15:32:00,90.0,72.0,29.72,SE,142,10.0,-999.0,55,0.00,,,0.00,,2013-05-19 20:32:00,
2013-05-19 15:41:00,90.0,72.0,29.72,SE,142,10.0,-999.0,55,0.00,,,0.00,,2013-05-19 20:41:00,
2013-05-19 15:52:00,90.0,72.0,29.71,SSE,153,15.0,-999.0,55,0.00,,,0.00,,2013-05-19 20:52:00,
2013-05-19 16:02:00,90.0,72.0,29.71,SSE,153,15.0,-999.0,55,0.00,,,0.00,,2013-05-19 21:02:00,
2013-05-19 16:11:00,90.0,72.0,29.71,SSE,153,15.0,-999.0,55,0.00,,,0.00,,2013-05-19 21:11:00,
2013-05-19 16:22:00,91.0,71.0,29.70,SE,145,9.0,-999.0,52,0.00,,,0.00,,2013-05-19 21:22:00,
2013-05-19 16:32:00,92.0,71.0,29.69,South,176,10.0,-999.0,51,0.00,,,0.00,,2013-05-19 21:32:00,
2013-05-19 16:43:00,92.0,71.0,29.69,South,176,10.0,-999.0,51,0.00,,,0.00,,2013-05-19 21:43:00,
2013-05-19 16:53:00,91.0,71.0,29.69,SSE,147,11.0,-999.0,53,0.00,,,0.00,,2013-05-19 21:53:00,
2013-05-19 17:02:00,91.0,71.0,29.68,SSE,147,14.0,-999.0,53,0.00,,,0.00,,2013-05-19 22:02:00,
2013-05-19 17:12:00,91.0,71.0,29.68,SSE,147,14.0,-999.0,53,0.00,,,0.00,,2013-05-19 22:12:00,
2013-05-19 17:23:00,90.0,71.0,29.68,SSE,154,7.0,-999.0,53,0.00,,,0.00,,2013-05-19 22:23:00,
2013-05-19 17:33:00,90.0,71.0,29.68,SE,144,14.0,-999.0,53,0.00,,,0.00,,2013-05-19 22:33:00,
2013-05-19 17:42:00,90.0,71.0,29.68,SE,144,14.0,-999.0,53,0.00,,,0.00,,2013-05-19 22:42:00,
2013-05-19 17:53:00,90.0,71.0,29.68,SSE,161,10.0,-999.0,54,0.00,,,0.00,,2013-05-19 22:53:00,
2013-05-19 18:02:00,90.0,72.0,29.68,SE,137,9.0,-999.0,55,0.00,,,0.00,,2013-05-19 23:02:00,
2013-05-19 18:11:00,90.0,72.0,29.68,SE,137,9.0,-999.0,55,0.00,,,0.00,,2013-05-19 23:11:00,
2013-05-19 18:21:00,89.0,71.0,29.68,SE,146,13.0,-999.0,55,0.00,,,0.00,,2013-05-19 23:21:00,
2013-05-19 18:32:00,90.0,72.0,29.68,SE,137,16.0,-999.0,55,0.00,,,0.00,,2013-05-19 23:32:00,
2013-05-19 18:42:00,89.0,70.0,29.67,SE,140,10.0,-999.0,54,0.00,,,0.00,,2013-05-19 23:42:00,
2013-05-19 18:52:00,89.0,70.0,29.67,SE,140,10.0,-999.0,54,0.00,,,0.00,,2013-05-19 23:52:00,
2013-05-19 19:02:00,88.0,70.0,29.68,East,97,7.0,-999.0,55,0.00,,,0.00,,2013-05-20 00:02:00,
2013-05-19 19:11:00,88.0,70.0,29.68,East,97,7.0,-999.0,55,0.00,,,0.00,,2013-05-20 00:11:00,
2013-05-19 19:21:00,88.0,69.0,29.68,SE,134,10.0,-999.0,54,0.00,,,0.00,,2013-05-20 00:21:00,
2013-05-19 19:32:00,87.0,68.0,29.68,ESE,115,14.0,-999.0,54,0.00,,,0.00,,2013-05-20 00:32:00,
2013-05-19 19:42:00,87.0,68.0,29.68,ESE,115,14.0,-999.0,54,0.00,,,0.00,,2013-05-20 00:42:00,
2013-05-19 19:52:00,86.0,68.0,29.68,SE,124,11.0,-999.0,55,0.00,,,0.00,,2013-05-20 00:52:00,
2013-05-19 20:01:00,86.0,68.0,29.69,SE,129,9.0,-999.0,56,0.00,,,0.00,,2013-05-20 01:01:00,
2013-05-19 20:11:00,86.0,68.0,29.69,SE,129,9.0,-999.0,56,0.00,,,0.00,,2013-05-20 01:11:00,
2013-05-19 20:21:00,85.0,68.0,29.69,SE,134,10.0,-999.0,57,0.00,,,0.00,,2013-05-20 01:21:00,
2013-05-19 20:31:00,84.0,68.0,29.70,SE,138,7.0,-999.0,59,0.00,,,0.00,,2013-05-20 01:31:00,
2013-05-19 20:42:00,84.0,68.0,29.70,SE,138,7.0,-999.0,59,0.00,,,0.00,,2013-05-20 01:42:00,
2013-05-19 20:52:00,84.0,69.0,29.71,SE,134,9.0,-999.0,60,0.00,,,0.00,,2013-05-20 01:52:00,
2013-05-19 21:02:00,83.0,69.0,29.72,SE,132,7.0,-999.0,62,0.00,,,0.00,,2013-05-20 02:02:00,
2013-05-19 21:11:00,83.0,69.0,29.72,SE,132,7.0,-999.0,62,0.00,,,0.00,,2013-05-20 02:11:00,
2013-05-19 21:21:00,82.0,69.0,29.73,SE,133,5.0,-999.0,65,0.00,,,0.00,,2013-05-20 02:21:00,
2013-05-19 21:31:00,81.0,69.0,29.74,ESE,113,9.0,-999.0,67,0.00,,,0.00,,2013-05-20 02:31:00,
2013-05-19 21:42:00,81.0,69.0,29.74,ESE,113,9.0,-999.0,67,0.00,,,0.00,,2013-05-20 02:42:00,
2013-05-19 21:52:00,80.0,68.0,29.74,ESE,106,8.0,-999.0,68,0.00,,,0.00,,2013-05-20 02:52:00,
2013-05-19 22:01:00,79.0,68.0,29.75,SE,131,9.0,-999.0,70,0.00,,,0.00,,2013-05-20 03:01:00,
2013-05-19 22:11:00,79.0,69.0,29.75,ESE,121,4.0,-999.0,71,0.00,,,0.00,,2013-05-20 03:11:00,
2013-05-19 22:21:00,79.0,69.0,29.75,ESE,121,4.0,-999.0,71,0.00,,,0.00,,2013-05-20 03:21:00,
2013-05-19 22:33:00,78.0,69.0,29.76,SE,144,9.0,-999.0,75,0.00,,,0.00,,2013-05-20 03:33:00,
2013-05-19 22:42:00,78.0,70.0,29.76,SE,129,4.0,-999.0,76,0.00,,,0.00,,2013-05-20 03:42:00,
2013-05-19 22:52:00,78.0,70.0,29.76,SE,129,4.0,-999.0,76,0.00,,,0.00,,2013-05-20 03:52:00,
2013-05-19 23:02:00,77.0,70.0,29.77,SE,142,5.0,-999.0,78,0.00,,,0.00,,2013-05-20 04:02:00,
2013-05-19 23:13:00,76.0,-99.9,-100.00,SE,140,7.0,-999.0,-999,0.00,,,-99.99,,2013-05-20 04:13:00,
2013-05-19 23:23:00,76.0,-99.9,-100.00,SE,140,7.0,-999.0,-999,0.00,,,-99.99,,2013-05-20 04:23:00,
2013-05-19 23:33:00,76.0,70.0,29.78,ESE,116,8.0,-999.0,82,0.00,,,0.00,,2013-05-20 04:33:00,
2013-05-19 23:42:00,76.0,70.0,29.78,ESE,116,8.0,-999.0,82,0.00,,,0.00,,2013-05-20 04:42:00,
2013-05-19 23:52:00,76.0,70.0,29.79,SE,131,2.0,-999.0,83,0.00,,,0.00,,2013-05-20 04:52:00,